| time (UTC) | temp F | wind direction | speed MPH | gust MPH | rain 1hr in | rain 24hr in | rain mn in | humidity % | barometer mb |
| 20260505211102 | 62 | 11 | 7.0 | 15.0 | 0.00 | 0.00 | 0.00 | 40 | 1018.2 |
| 20260505210604 | 63 | 209 | 6.0 | 15.0 | 0.00 | 0.00 | 0.00 | 39 | 1018.2 |
| 20260505210100 | 64 | 23 | 6.0 | 15.0 | 0.00 | 0.00 | 0.00 | 37 | 1018.2 |
| 20260505205602 | 64 | 337 | 5.0 | 14.0 | 0.00 | 0.00 | 0.00 | 39 | 1018.2 |
| 20260505205101 | 64 | 331 | 5.0 | 15.0 | 0.00 | 0.00 | 0.00 | 39 | 1018.4 |
| 20260505204601 | 62 | 309 | 6.0 | 15.0 | 0.00 | 0.00 | 0.00 | 39 | 1018.2 |
| 20260505204102 | 62 | 300 | 6.0 | 15.0 | 0.00 | 0.00 | 0.00 | 40 | 1018.2 |
| 20260505203602 | 62 | 157 | 4.0 | 17.0 | 0.00 | 0.00 | 0.00 | 38 | 1018.2 |
| 20260505203126 | 62 | 335 | 7.0 | 17.0 | 0.00 | 0.00 | 0.00 | 38 | 1018.3 |
| 20260505202602 | 63 | 298 | 7.0 | 15.0 | 0.00 | 0.00 | 0.00 | 37 | 1018.2 |
| 20260505202102 | 64 | 292 | 6.0 | 15.0 | 0.00 | 0.00 | 0.00 | 37 | 1018.2 |
| 20260505201600 | 64 | 331 | 9.0 | 15.0 | 0.00 | 0.00 | 0.00 | 37 | 1018.2 |
| 20260505201102 | 65 | 300 | 4.0 | 15.0 | 0.00 | 0.00 | 0.00 | 36 | 1018.1 |
| 20260505200601 | 64 | 82 | 6.0 | 15.0 | 0.00 | 0.00 | 0.00 | 37 | 1018.1 |
| 20260505200101 | 64 | 302 | 6.0 | 15.0 | 0.00 | 0.00 | 0.00 | 35 | 1018.1 |
| 20260505195602 | 63 | 284 | 5.0 | 14.0 | 0.00 | 0.00 | 0.00 | 40 | 1018.1 |
| 20260505195058 | 63 | 9 | 7.0 | 22.0 | 0.00 | 0.00 | 0.00 | 38 | 1018.1 |
| 20260505194558 | 62 | 252 | 7.0 | 22.0 | 0.00 | 0.00 | 0.00 | 42 | 1018.1 |
| 20260505194101 | 63 | 298 | 5.0 | 16.0 | 0.00 | 0.00 | 0.00 | 39 | 1018.1 |
| 20260505193602 | 62 | 305 | 8.0 | 16.0 | 0.00 | 0.00 | 0.00 | 41 | 1018.1 |
| 20260505193059 | 62 | 11 | 5.0 | 14.0 | 0.00 | 0.00 | 0.00 | 43 | 1018.2 |
| 20260505192604 | 62 | 298 | 6.0 | 14.0 | 0.00 | 0.00 | 0.00 | 42 | 1018.2 |
| 20260505192102 | 62 | 292 | 7.0 | 14.0 | 0.00 | 0.00 | 0.00 | 43 | 1018.2 |
| 20260505191602 | 62 | 250 | 5.0 | 14.0 | 0.00 | 0.00 | 0.00 | 44 | 1018.1 |
| 20260505191103 | 62 | 312 | 5.0 | 13.0 | 0.00 | 0.00 | 0.00 | 43 | 1018.3 |
| 20260505190603 | 62 | 330 | 5.0 | 15.0 | 0.00 | 0.00 | 0.00 | 46 | 1018.2 |
| 20260505190059 | 61 | 311 | 7.0 | 15.0 | 0.00 | 0.00 | 0.00 | 46 | 1018.3 |
| 20260505185558 | 60 | 312 | 4.0 | 15.0 | 0.00 | 0.00 | 0.00 | 47 | 1018.2 |
| 20260505185058 | 60 | 292 | 7.0 | 14.0 | 0.00 | 0.00 | 0.00 | 47 | 1018.1 |
| 20260505184601 | 59 | 269 | 5.0 | 15.0 | 0.00 | 0.00 | 0.00 | 48 | 1018.3 |
| 20260505184058 | 60 | 34 | 8.0 | 15.0 | 0.00 | 0.00 | 0.00 | 46 | 1018.3 |
| 20260505183557 | 60 | 280 | 5.0 | 16.0 | 0.00 | 0.00 | 0.00 | 49 | 1018.1 |
| 20260505183106 | 59 | 342 | 5.0 | 16.0 | 0.00 | 0.00 | 0.00 | 49 | 1018.2 |
| 20260505182605 | 59 | 317 | 6.0 | 15.0 | 0.00 | 0.00 | 0.00 | 49 | 1018.2 |
| 20260505182103 | 59 | 342 | 7.0 | 15.0 | 0.00 | 0.00 | 0.00 | 48 | 1018.2 |
| 20260505181559 | 60 | 337 | 5.0 | 14.0 | 0.00 | 0.00 | 0.00 | 48 | 1018.1 |
| 20260505181103 | 59 | 347 | 8.0 | 13.0 | 0.00 | 0.00 | 0.00 | 48 | 1018.1 |
| 20260505180558 | 59 | 292 | 6.0 | 12.0 | 0.00 | 0.00 | 0.00 | 50 | 1018.0 |
| 20260505180110 | 58 | 238 | 3.0 | 11.0 | 0.00 | 0.00 | 0.00 | 49 | 1017.9 |
| 20260505175558 | 59 | 284 | 4.0 | 11.0 | 0.00 | 0.00 | 0.00 | 49 | 1017.9 |
| 20260505175104 | 58 | 265 | 4.0 | 14.0 | 0.00 | 0.00 | 0.00 | 50 | 1018.0 |
| 20260505174558 | 59 | 327 | 5.0 | 14.0 | 0.00 | 0.00 | 0.00 | 50 | 1017.9 |
| 20260505174057 | 59 | 242 | 6.0 | 14.0 | 0.00 | 0.00 | 0.00 | 50 | 1017.8 |
| 20260505173603 | 57 | 238 | 5.0 | 12.0 | 0.00 | 0.00 | 0.00 | 54 | 1017.7 |
| 20260505173100 | 57 | 289 | 6.0 | 12.0 | 0.00 | 0.00 | 0.00 | 53 | 1017.7 |
| 20260505172600 | 57 | 335 | 4.0 | 12.0 | 0.00 | 0.00 | 0.00 | 53 | 1017.8 |
| 20260505172057 | 57 | 315 | 5.0 | 10.0 | 0.00 | 0.00 | 0.00 | 55 | 1017.7 |
| 20260505171601 | 56 | 275 | 4.0 | 11.0 | 0.00 | 0.00 | 0.00 | 54 | 1017.6 |
| 20260505171058 | 56 | 277 | 4.0 | 12.0 | 0.00 | 0.00 | 0.00 | 56 | 1017.6 |
| 20260505170557 | 55 | 291 | 3.0 | 12.0 | 0.00 | 0.00 | 0.00 | 57 | 1017.7 |
| 20260505170059 | 54 | 344 | 4.0 | 12.0 | 0.00 | 0.00 | 0.00 | 58 | 1017.6 |
| 20260505165601 | 54 | 39 | 3.0 | 13.0 | 0.00 | 0.00 | 0.00 | 59 | 1017.6 |
| 20260505165101 | 54 | 309 | 5.0 | 13.0 | 0.00 | 0.00 | 0.00 | 58 | 1017.6 |
| 20260505164603 | 54 | 337 | 4.0 | 13.0 | 0.00 | 0.00 | 0.00 | 59 | 1017.5 |
| 20260505164104 | 53 | 338 | 4.0 | 13.0 | 0.00 | 0.00 | 0.00 | 58 | 1017.6 |
| 20260505163600 | 53 | 347 | 5.0 | 12.0 | 0.00 | 0.00 | 0.00 | 58 | 1017.5 |
| 20260505163059 | 53 | 310 | 6.0 | 12.0 | 0.00 | 0.00 | 0.00 | 58 | 1017.5 |
| 20260505162559 | 53 | 334 | 2.0 | 9.0 | 0.00 | 0.00 | 0.00 | 57 | 1017.3 |
| 20260505162102 | 53 | 344 | 3.0 | 12.0 | 0.00 | 0.00 | 0.00 | 57 | 1017.3 |
| 20260505161558 | 53 | 63 | 4.0 | 12.0 | 0.00 | 0.00 | 0.00 | 57 | 1017.2 |
| 20260505161100 | 53 | 23 | 4.0 | 12.0 | 0.00 | 0.00 | 0.00 | 58 | 1017.2 |
| 20260505160558 | 52 | 261 | 3.0 | 11.0 | 0.00 | 0.00 | 0.00 | 58 | 1017.1 |
| 20260505153100 | 52 | 319 | 5.0 | 13.0 | 0.00 | 0.00 | 0.00 | 59 | 1017.0 |
| 20260505152604 | 51 | 43 | 4.0 | 12.0 | 0.00 | 0.00 | 0.00 | 59 | 1017.0 |
| 20260505152102 | 51 | 247 | 3.0 | 10.0 | 0.00 | 0.00 | 0.00 | 60 | 1017.0 |
| 20260505151601 | 50 | 302 | 5.0 | 11.0 | 0.00 | 0.00 | 0.00 | 60 | 1017.0 |
| 20260505151102 | 50 | 302 | 5.0 | 11.0 | 0.00 | 0.00 | 0.00 | 61 | 1016.9 |
| 20260505150601 | 50 | 344 | 4.0 | 9.0 | 0.00 | 0.00 | 0.00 | 61 | 1017.0 |
| 20260505150104 | 50 | 329 | 3.0 | 10.0 | 0.00 | 0.00 | 0.00 | 61 | 1017.0 |
| 20260505140557 | 47 | 316 | 2.0 | 7.0 | 0.00 | 0.00 | 0.00 | 62 | 1016.0 |
| 20260505140123 | 47 | 325 | 4.0 | 7.0 | 0.00 | 0.00 | 0.00 | 61 | 1016.0 |
| 20260505124602 | 43 | 15 | 4.0 | 9.0 | 0.00 | 0.00 | 0.00 | 65 | 1015.5 |
| 20260505124059 | 43 | 319 | 3.0 | 5.0 | 0.00 | 0.00 | 0.00 | 65 | 1015.5 |
| 20260505123601 | 43 | 323 | 3.0 | 5.0 | 0.00 | 0.00 | 0.00 | 64 | 1015.5 |
| 20260505123059 | 43 | 336 | 3.0 | 8.0 | 0.00 | 0.00 | 0.00 | 63 | 1015.5 |
| 20260505122603 | 43 | 325 | 3.0 | 8.0 | 0.00 | 0.00 | 0.00 | 63 | 1015.4 |
| 20260505122101 | 43 | 309 | 2.0 | 6.0 | 0.00 | 0.00 | 0.00 | 61 | 1015.6 |
| 20260505121601 | 43 | 302 | 3.0 | 6.0 | 0.00 | 0.00 | 0.00 | 61 | 1015.5 |
| 20260505121101 | 42 | 323 | 2.0 | 5.0 | 0.00 | 0.00 | 0.00 | 61 | 1015.5 |
| 20260505120601 | 42 | 325 | 1.0 | 3.0 | 0.00 | 0.00 | 0.00 | 61 | 1015.5 |
| 20260505120117 | 42 | 234 | 0.0 | 4.0 | 0.00 | 0.00 | 0.00 | 61 | 1015.5 |
| 20260505115600 | 42 | 221 | 1.0 | 4.0 | 0.00 | 0.00 | 0.00 | 61 | 1015.4 |
| 20260505115101 | 42 | 0 | 1.0 | 4.0 | 0.00 | 0.00 | 0.00 | 61 | 1015.3 |
| 20260505114601 | 42 | 254 | 1.0 | 6.0 | 0.00 | 0.00 | 0.00 | 61 | 1015.3 |
| 20260505114101 | 43 | 238 | 1.0 | 6.0 | 0.00 | 0.00 | 0.00 | 61 | 1015.2 |
| 20260505113601 | 43 | 332 | 3.0 | 6.0 | 0.00 | 0.00 | 0.00 | 61 | 1015.2 |
| 20260505113105 | 43 | 325 | 3.0 | 8.0 | 0.00 | 0.00 | 0.00 | 62 | 1015.3 |
| 20260505112558 | 43 | 344 | 4.0 | 8.0 | 0.00 | 0.00 | 0.00 | 62 | 1015.3 |
| 20260505112057 | 43 | 334 | 3.0 | 9.0 | 0.00 | 0.00 | 0.00 | 62 | 1015.2 |
| 20260505111605 | 43 | 335 | 4.0 | 9.0 | 0.00 | 0.00 | 0.00 | 63 | 1015.3 |
| 20260505111057 | 43 | 337 | 4.0 | 9.0 | 0.00 | 0.00 | 0.00 | 64 | 1015.3 |
| 20260505110557 | 43 | 325 | 3.0 | 8.0 | 0.00 | 0.00 | 0.00 | 65 | 1015.3 |
| 20260505102058 | 44 | 0 | 2.0 | 8.0 | 0.00 | 0.00 | 0.00 | 66 | 1015.4 |
| 20260505101604 | 44 | 0 | 2.0 | 7.0 | 0.00 | 0.00 | 0.00 | 65 | 1015.4 |
| 20260505101059 | 44 | 315 | 4.0 | 7.0 | 0.00 | 0.00 | 0.00 | 66 | 1015.3 |
| 20260505100559 | 44 | 314 | 4.0 | 5.0 | 0.00 | 0.00 | 0.00 | 64 | 1015.3 |
| 20260505100101 | 44 | 335 | 3.0 | 5.0 | 0.00 | 0.00 | 0.00 | 63 | 1015.3 |
| 20260505095559 | 44 | 302 | 2.0 | 6.0 | 0.00 | 0.00 | 0.00 | 64 | 1015.2 |
| 20260505095100 | 44 | 310 | 2.0 | 6.0 | 0.00 | 0.00 | 0.00 | 63 | 1015.1 |
| 20260505094602 | 43 | 288 | 1.0 | 3.0 | 0.00 | 0.00 | 0.00 | 65 | 1015.1 |
| 20260505094103 | 44 | 291 | 0.0 | 6.0 | 0.00 | 0.00 | 0.00 | 66 | 1015.0 |
| 20260505093559 | 44 | 257 | 1.0 | 6.0 | 0.00 | 0.00 | 0.00 | 67 | 1015.1 |
| 20260505093059 | 43 | 17 | 1.0 | 3.0 | 0.00 | 0.00 | 0.00 | 66 | 1015.2 |
| 20260505092559 | 43 | 291 | 1.0 | 3.0 | 0.00 | 0.00 | 0.00 | 67 | 1015.2 |
| 20260505092059 | 44 | 229 | 1.0 | 4.0 | 0.00 | 0.00 | 0.00 | 67 | 1015.1 |
| 20260505091611 | 44 | 232 | 1.0 | 5.0 | 0.00 | 0.00 | 0.00 | 67 | 1015.3 |
| 20260505091058 | 44 | 280 | 2.0 | 5.0 | 0.00 | 0.00 | 0.00 | 66 | 1015.1 |
| 20260505090559 | 44 | 311 | 1.0 | 8.0 | 0.00 | 0.00 | 0.00 | 65 | 1015.3 |
| 20260505085603 | 45 | 298 | 2.0 | 6.0 | 0.00 | 0.00 | 0.00 | 65 | 1015.3 |
| 20260505085059 | 45 | 300 | 1.0 | 5.0 | 0.00 | 0.00 | 0.00 | 64 | 1015.3 |
| 20260505084607 | 45 | 298 | 3.0 | 5.0 | 0.00 | 0.00 | 0.00 | 65 | 1015.3 |
| 20260505084059 | 45 | 265 | 3.0 | 5.0 | 0.00 | 0.00 | 0.00 | 65 | 1015.5 |
| 20260505083603 | 45 | 298 | 3.0 | 5.0 | 0.00 | 0.00 | 0.00 | 65 | 1015.5 |
| 20260505083107 | 45 | 291 | 2.0 | 5.0 | 0.00 | 0.00 | 0.00 | 66 | 1015.4 |
| 20260505082559 | 45 | 250 | 2.0 | 5.0 | 0.00 | 0.00 | 0.00 | 66 | 1015.4 |
| 20260505082058 | 45 | 282 | 2.0 | 5.0 | 0.00 | 0.00 | 0.00 | 66 | 1015.4 |
| 20260505081558 | 45 | 250 | 2.0 | 6.0 | 0.00 | 0.00 | 0.00 | 67 | 1015.5 |
| 20260505081059 | 45 | 279 | 3.0 | 6.0 | 0.00 | 0.00 | 0.00 | 67 | 1015.4 |
| 20260505080558 | 45 | 302 | 2.0 | 7.0 | 0.00 | 0.00 | 0.00 | 66 | 1015.5 |
| 20260505075559 | 45 | 284 | 3.0 | 6.0 | 0.00 | 0.00 | 0.00 | 66 | 1015.5 |
| 20260505075059 | 45 | 293 | 2.0 | 6.0 | 0.00 | 0.00 | 0.00 | 66 | 1015.6 |
| 20260505074559 | 45 | 309 | 3.0 | 10.0 | 0.00 | 0.00 | 0.00 | 66 | 1015.7 |
| 20260505074057 | 46 | 286 | 4.0 | 10.0 | 0.00 | 0.00 | 0.00 | 66 | 1015.7 |
| 20260505073557 | 46 | 321 | 4.0 | 7.0 | 0.00 | 0.00 | 0.00 | 66 | 1015.7 |
| 20260505073103 | 46 | 298 | 4.0 | 7.0 | 0.00 | 0.00 | 0.00 | 66 | 1015.7 |
| 20260505072605 | 45 | 287 | 3.0 | 7.0 | 0.00 | 0.00 | 0.00 | 67 | 1015.7 |
| 20260505072100 | 45 | 282 | 3.0 | 7.0 | 0.00 | 0.00 | 0.00 | 67 | 1015.6 |
| 20260505071601 | 46 | 265 | 3.0 | 7.0 | 0.00 | 0.00 | 0.00 | 67 | 1015.5 |
| 20260505071058 | 46 | 275 | 2.0 | 7.0 | 0.00 | 0.00 | 0.00 | 67 | 1015.5 |
| 20260505070601 | 46 | 238 | 3.0 | 8.0 | 0.00 | 0.00 | 0.00 | 67 | 1015.5 |
| 20260505070106 | 45 | 265 | 2.0 | 8.0 | 0.00 | 0.00 | 0.00 | 67 | 1015.4 |
| 20260505065558 | 45 | 272 | 2.0 | 8.0 | 0.00 | 0.00 | 0.00 | 67 | 1015.4 |
| 20260505065058 | 46 | 242 | 1.0 | 6.0 | 0.00 | 0.00 | 0.00 | 67 | 1015.3 |
| 20260505064559 | 46 | 254 | 2.0 | 7.0 | 0.00 | 0.00 | 0.00 | 67 | 1015.4 |
| 20260505064057 | 46 | 325 | 2.0 | 7.0 | 0.00 | 0.00 | 0.00 | 67 | 1015.2 |
| 20260505063557 | 46 | 269 | 2.0 | 7.0 | 0.00 | 0.00 | 0.00 | 66 | 1015.3 |
| 20260505063103 | 46 | 265 | 2.0 | 8.0 | 0.00 | 0.00 | 0.00 | 66 | 1015.3 |
| 20260505062559 | 46 | 286 | 3.0 | 8.0 | 0.00 | 0.00 | 0.00 | 66 | 1015.3 |
| 20260505062101 | 46 | 291 | 3.0 | 8.0 | 0.00 | 0.00 | 0.00 | 65 | 1015.3 |
| 20260505061630 | 46 | 284 | 4.0 | 8.0 | 0.00 | 0.00 | 0.00 | 65 | 1015.3 |
| 20260505061057 | 47 | 297 | 4.0 | 11.0 | 0.00 | 0.00 | 0.00 | 65 | 1015.3 |
| 20260505060559 | 47 | 309 | 3.0 | 11.0 | 0.00 | 0.00 | 0.00 | 64 | 1015.4 |
| 20260505060103 | 47 | 280 | 4.0 | 10.0 | 0.00 | 0.00 | 0.00 | 64 | 1015.4 |
| 20260505055557 | 47 | 286 | 4.0 | 9.0 | 0.00 | 0.00 | 0.00 | 64 | 1015.5 |
| 20260505055058 | 47 | 273 | 3.0 | 9.0 | 0.00 | 0.00 | 0.00 | 65 | 1015.5 |
| 20260505054559 | 47 | 309 | 4.0 | 10.0 | 0.00 | 0.00 | 0.00 | 64 | 1015.4 |
| 20260505054057 | 47 | 257 | 3.0 | 10.0 | 0.00 | 0.00 | 0.00 | 64 | 1015.5 |
| 20260505053557 | 47 | 279 | 3.0 | 9.0 | 0.00 | 0.00 | 0.00 | 64 | 1015.6 |
| 20260505053059 | 47 | 259 | 2.0 | 9.0 | 0.00 | 0.00 | 0.00 | 64 | 1015.7 |
| 20260505052557 | 47 | 309 | 3.0 | 11.0 | 0.00 | 0.00 | 0.00 | 63 | 1015.8 |
| 20260505052058 | 48 | 293 | 4.0 | 11.0 | 0.00 | 0.00 | 0.00 | 62 | 1015.8 |
| 20260505051558 | 48 | 304 | 4.0 | 9.0 | 0.00 | 0.00 | 0.00 | 62 | 1015.8 |
| 20260505051058 | 48 | 288 | 3.0 | 11.0 | 0.00 | 0.00 | 0.00 | 62 | 1015.6 |
| 20260505050558 | 48 | 300 | 3.0 | 11.0 | 0.00 | 0.00 | 0.00 | 61 | 1015.5 |
| 20260505041605 | 51 | 286 | 6.0 | 19.0 | 0.00 | 0.00 | 0.00 | 52 | 1015.3 |
| 20260505041058 | 51 | 337 | 5.0 | 17.0 | 0.00 | 0.00 | 0.00 | 51 | 1015.1 |
| 20260505040558 | 52 | 307 | 5.0 | 17.0 | 0.00 | 0.00 | 0.00 | 48 | 1015.1 |
| 20260505040104 | 52 | 289 | 8.0 | 17.0 | 0.00 | 0.00 | 0.00 | 44 | 1014.9 |
| 20260505035557 | 52 | 310 | 4.0 | 14.0 | 0.00 | 0.00 | 0.00 | 42 | 1014.8 |
| 20260505035057 | 53 | 265 | 4.0 | 14.0 | 0.00 | 0.00 | 0.00 | 42 | 1014.9 |
| 20260505034609 | 53 | 327 | 5.0 | 14.0 | 0.00 | 0.00 | 0.00 | 42 | 1014.7 |
| 20260505034059 | 54 | 296 | 3.0 | 12.0 | 0.00 | 0.00 | 0.00 | 42 | 1014.6 |
| 20260505033557 | 54 | 259 | 3.0 | 9.0 | 0.00 | 0.00 | 0.00 | 42 | 1014.5 |
| 20260505033105 | 54 | 257 | 4.0 | 12.0 | 0.00 | 0.00 | 0.00 | 42 | 1014.5 |
| 20260505032557 | 55 | 329 | 5.0 | 12.0 | 0.00 | 0.00 | 0.00 | 42 | 1014.3 |
| 20260505032058 | 55 | 314 | 3.0 | 14.0 | 0.00 | 0.00 | 0.00 | 42 | 1014.3 |
| 20260505031558 | 55 | 247 | 5.0 | 14.0 | 0.00 | 0.00 | 0.00 | 41 | 1014.3 |
| 20260505031057 | 56 | 330 | 4.0 | 16.0 | 0.00 | 0.00 | 0.00 | 41 | 1014.1 |
| 20260505030558 | 56 | 277 | 3.0 | 16.0 | 0.00 | 0.00 | 0.00 | 42 | 1014.1 |
| 20260505030104 | 56 | 310 | 6.0 | 20.0 | 0.00 | 0.00 | 0.00 | 41 | 1014.1 |
| 20260505025557 | 57 | 265 | 5.0 | 21.0 | 0.00 | 0.00 | 0.00 | 41 | 1013.9 |
| 20260505025057 | 57 | 268 | 9.0 | 21.0 | 0.00 | 0.00 | 0.00 | 40 | 1013.8 |
| 20260505024557 | 58 | 295 | 4.0 | 20.0 | 0.00 | 0.00 | 0.00 | 40 | 1013.7 |
| 20260505024057 | 58 | 266 | 8.0 | 20.0 | 0.00 | 0.00 | 0.00 | 41 | 1013.7 |
| 20260505023557 | 59 | 323 | 7.0 | 19.0 | 0.00 | 0.00 | 0.00 | 42 | 1013.9 |
| 20260505023058 | 59 | 347 | 5.0 | 17.0 | 0.00 | 0.00 | 0.00 | 42 | 1013.9 |
| 20260505022558 | 59 | 293 | 5.0 | 21.0 | 0.00 | 0.00 | 0.00 | 42 | 1013.8 |
| 20260505022102 | 59 | 304 | 6.0 | 21.0 | 0.00 | 0.00 | 0.00 | 42 | 1013.7 |
| 20260505021601 | 59 | 22 | 5.0 | 15.0 | 0.00 | 0.00 | 0.00 | 41 | 1013.7 |
| 20260505021059 | 60 | 309 | 7.0 | 21.0 | 0.00 | 0.00 | 0.00 | 41 | 1013.6 |
| 20260505020601 | 61 | 275 | 7.0 | 21.0 | 0.00 | 0.00 | 0.00 | 40 | 1013.3 |
| 20260505020058 | 61 | 287 | 8.0 | 21.0 | 0.00 | 0.00 | 0.00 | 40 | 1013.5 |
| 20260505015558 | 62 | 250 | 4.0 | 17.0 | 0.00 | 0.00 | 0.00 | 39 | 1013.5 |
| 20260505015058 | 62 | 255 | 7.0 | 24.0 | 0.00 | 0.00 | 0.00 | 38 | 1013.5 |
| 20260505014610 | 62 | 270 | 9.0 | 24.0 | 0.00 | 0.00 | 0.00 | 38 | 1013.5 |
| 20260505014057 | 63 | 325 | 4.0 | 19.0 | 0.00 | 0.00 | 0.00 | 38 | 1013.7 |
| 20260505013557 | 62 | 342 | 7.0 | 19.0 | 0.00 | 0.00 | 0.00 | 37 | 1013.7 |
| 20260505013103 | 63 | 334 | 4.0 | 16.0 | 0.00 | 0.00 | 0.00 | 37 | 1013.8 |
| 20260505012557 | 63 | 317 | 8.0 | 16.0 | 0.00 | 0.00 | 0.00 | 36 | 1013.8 |
| 20260505012101 | 64 | 273 | 6.0 | 16.0 | 0.00 | 0.00 | 0.00 | 35 | 1013.8 |
| 20260505011618 | 63 | 211 | 4.0 | 16.0 | 0.00 | 0.00 | 0.00 | 35 | 1013.9 |
| 20260505011059 | 63 | 277 | 5.0 | 14.0 | 0.00 | 0.00 | 0.00 | 34 | 1014.1 |
| 20260505010557 | 62 | 302 | 5.0 | 14.0 | 0.00 | 0.00 | 0.00 | 35 | 1014.0 |
| 20260505010107 | 62 | 261 | 5.0 | 14.0 | 0.00 | 0.00 | 0.00 | 34 | 1014.1 |
| 20260505005558 | 62 | 219 | 4.0 | 14.0 | 0.00 | 0.00 | 0.00 | 35 | 1014.0 |
| 20260505005101 | 62 | 93 | 5.0 | 17.0 | 0.00 | 0.00 | 0.00 | 34 | 1014.2 |
| 20260505004601 | 64 | 265 | 4.0 | 17.0 | 0.00 | 0.00 | 0.00 | 31 | 1014.0 |
| 20260505004058 | 65 | 224 | 7.0 | 17.0 | 0.00 | 0.00 | 0.00 | 30 | 1014.1 |
| 20260505003557 | 66 | 282 | 4.0 | 13.0 | 0.00 | 0.00 | 0.00 | 31 | 1014.1 |
| 20260505003058 | 65 | 192 | 3.0 | 17.0 | 0.00 | 0.00 | 0.00 | 32 | 1014.2 |
| 20260505002557 | 65 | 227 | 5.0 | 17.0 | 0.00 | 0.00 | 0.00 | 30 | 1014.1 |
| 20260505002101 | 66 | 295 | 3.0 | 14.0 | 0.00 | 0.00 | 0.00 | 31 | 1014.2 |
| 20260505001558 | 65 | 265 | 5.0 | 18.0 | 0.00 | 0.00 | 0.00 | 31 | 1014.2 |
| 20260505001058 | 65 | 238 | 5.0 | 18.0 | 0.00 | 0.00 | 0.00 | 31 | 1014.2 |
| 20260505000557 | 64 | 279 | 7.0 | 14.0 | 0.00 | 0.00 | 0.00 | 30 | 1014.2 |
| 20260505000108 | 65 | 291 | 5.0 | 12.0 | 0.00 | 0.00 | 0.00 | 30 | 1014.3 |
| 20260504235558 | 65 | 229 | 4.0 | 13.0 | 0.00 | 0.00 | 0.00 | 29 | 1014.4 |
| 20260504235058 | 66 | 34 | 5.0 | 13.0 | 0.00 | 0.00 | 0.00 | 28 | 1014.5 |
| 20260504234615 | 67 | 248 | 4.0 | 13.0 | 0.00 | 0.00 | 0.00 | 28 | 1014.5 |
| 20260504234102 | 66 | 289 | 4.0 | 15.0 | 0.00 | 0.00 | 0.00 | 28 | 1014.5 |
| 20260504233558 | 66 | 282 | 6.0 | 15.0 | 0.00 | 0.00 | 0.00 | 29 | 1014.5 |
| 20260504233059 | 67 | 284 | 4.0 | 15.0 | 0.00 | 0.00 | 0.00 | 29 | 1014.5 |
| 20260504232558 | 65 | 39 | 5.0 | 15.0 | 0.00 | 0.00 | 0.00 | 29 | 1014.5 |
| 20260504232101 | 65 | 254 | 4.0 | 15.0 | 0.00 | 0.00 | 0.00 | 30 | 1014.7 |
| 20260504231557 | 65 | 305 | 4.0 | 21.0 | 0.00 | 0.00 | 0.00 | 30 | 1014.9 |
| 20260504231057 | 65 | 49 | 7.0 | 21.0 | 0.00 | 0.00 | 0.00 | 29 | 1014.9 |
| 20260504230558 | 66 | 325 | 7.0 | 18.0 | 0.00 | 0.00 | 0.00 | 29 | 1014.8 |
| 20260504230059 | 66 | 238 | 6.0 | 18.0 | 0.00 | 0.00 | 0.00 | 30 | 1014.9 |
| 20260504225558 | 66 | 279 | 6.0 | 19.0 | 0.00 | 0.00 | 0.00 | 30 | 1014.8 |
| 20260504225057 | 65 | 294 | 5.0 | 19.0 | 0.00 | 0.00 | 0.00 | 31 | 1014.9 |
| 20260504224602 | 65 | 327 | 6.0 | 14.0 | 0.00 | 0.00 | 0.00 | 33 | 1014.9 |
| 20260504224057 | 65 | 328 | 8.0 | 15.0 | 0.00 | 0.00 | 0.00 | 31 | 1014.9 |
| 20260504223557 | 65 | 275 | 6.0 | 19.0 | 0.00 | 0.00 | 0.00 | 31 | 1014.9 |
| 20260504223058 | 65 | 296 | 7.0 | 19.0 | 0.00 | 0.00 | 0.00 | 30 | 1015.1 |
| 20260504222558 | 65 | 265 | 4.0 | 15.0 | 0.00 | 0.00 | 0.00 | 33 | 1015.0 |
| 20260504222101 | 63 | 255 | 7.0 | 15.0 | 0.00 | 0.00 | 0.00 | 33 | 1015.1 |
| 20260504221559 | 66 | 302 | 5.0 | 16.0 | 0.00 | 0.00 | 0.00 | 30 | 1014.9 |
| 20260504221057 | 67 | 277 | 6.0 | 16.0 | 0.00 | 0.00 | 0.00 | 31 | 1015.1 |
| 20260504220558 | 66 | 189 | 5.0 | 12.0 | 0.00 | 0.00 | 0.00 | 32 | 1015.1 |
| 20260504220104 | 64 | 22 | 4.0 | 11.0 | 0.00 | 0.00 | 0.00 | 34 | 1015.2 |
| 20260504215559 | 64 | 277 | 6.0 | 11.0 | 0.00 | 0.00 | 0.00 | 34 | 1015.3 |
| 20260504215057 | 64 | 227 | 4.0 | 14.0 | 0.00 | 0.00 | 0.00 | 33 | 1015.3 |
| 20260504214559 | 65 | 279 | 6.0 | 14.0 | 0.00 | 0.00 | 0.00 | 33 | 1015.3 |
| 20260504214057 | 66 | 317 | 5.0 | 14.0 | 0.00 | 0.00 | 0.00 | 34 | 1015.3 |
| 20260504213557 | 65 | 280 | 7.0 | 15.0 | 0.00 | 0.00 | 0.00 | 36 | 1015.4 |
| 20260504213110 | 64 | 324 | 7.0 | 16.0 | 0.00 | 0.00 | 0.00 | 36 | 1015.6 |
| 20260504212558 | 64 | 18 | 8.0 | 16.0 | 0.00 | 0.00 | 0.00 | 37 | 1015.5 |
| 20260504212057 | 63 | 51 | 8.0 | 16.0 | 0.00 | 0.00 | 0.00 | 38 | 1015.5 |